BUGSAT-1 (TITA)

Last updated on Mon Jun 22 2026 00:03:41 GMT+0000 (Coordinated Universal Time)

1 40014U 14033E 26172.52571586 .00004787 00000+0 25336-3 0 9994 2 40014 98.0425 265.3280 0028348 163.8329 196.3813 15.15627199656499
UTC large
Height (km)
Speed (km/s)
/
Latitude / Longitude
Inclination (degrees)
Orbital Period (minutes)
Azimuth
Elevation
Range (km)
Doppler Factor

Next 0 passes for location: London (51.5072 / 0.1276)

No passes found over London.
BUGSAT-1 (TITA)